Total_Precipitation_Accumulation
0.02 0.01 0.01 0.01 0.01 0.03 0.03 0.03 0.05 0.03 0.03 0.01 0.01 0.01 0.00 0.00 0.00 0.00 0.03 0.02 0.08 0.00 0.03 0.08 0.12 0.27 0.20 0.16 0.17 0.17 0.12 0.09 0.06 0.03 0.04 0.01 0.00 0.02 0.06 0.05 0.01 0.00 0.00 0.00 0.00 0.00 0.00 0.00 0.00 0.00 0.00 0.00 0.00 0.00 0.00 0.00 0.00 0.00 0.00 0.00 0.00 0.00 0.00 0.00 0.00 0.00 0.00 0.00 0.00 0.00 0.00 0.00 0.00 0.00 0.00 0.00 0.00 0.00 0.00 0.00 0.00 0.00 0.00 0.00 0.00 0.00 0.00 0.01
0.06 0.01 0.01 0.02 0.01 0.02 0.03 0.04 0.03 0.03 0.02 0.01 0.01 0.00 0.00 0.00 0.00 0.00 0.00 0.00 0.09 0.03 0.03 0.04 0.08 0.13 0.21 0.14 0.14 0.15 0.12 0.07 0.06 0.02 0.02 0.00 0.00 0.03 0.06 0.04 0.01 0.00 0.00 0.00 0.00 0.00 0.00 0.00 0.00 0.00 0.00 0.00 0.00 0.00 0.00 0.00 0.00 0.00 0.00 0.00 0.00 0.00 0.00 0.00 0.00 0.00 0.00 0.00 0.00 0.00 0.00 0.00 0.00 0.00 0.00 0.00 0.00 0.00 0.00 0.00 0.00 0.00 0.00 0.00 0.00 0.00 0.00 0.02
0.12 0.03 0.02 0.02 0.02 0.03 0.04 0.03 0.03 0.03 0.03 0.02 0.01 0.00 0.00 0.00 0.00 0.00 0.02 0.01 0.01 0.08 0.07 0.07 0.06 0.06 0.10 0.12 0.10 0.12 0.11 0.07 0.04 0.03 0.00 0.00 0.00 0.01 0.04 0.02 0.00 0.00 0.00 0.00 0.00 0.00 0.00 0.00 0.00 0.00 0.00 0.00 0.00 0.00 0.00 0.00 0.00 0.00 0.00 0.00 0.00 0.00 0.00 0.00 0.00 0.00 0.00 0.00 0.00 0.00 0.00 0.00 0.00 0.00 0.00 0.00 0.00 0.00 0.00 0.00 0.00 0.00 0.00 0.00 0.00 0.00 0.01 0.02
0.06 0.04 0.03 0.02 0.03 0.02 0.03 0.04 0.04 0.03 0.03 0.03 0.02 0.00 0.00 0.01 0.01 0.00 0.00 0.01 0.15 0.07 0.04 0.06 0.06 0.05 0.04 0.06 0.08 0.09 0.09 0.08 0.05 0.01 0.00 0.00 0.00 0.00 0.01 0.01 0.00 0.00 0.00 0.00 0.00 0.00 0.00 0.00 0.00 0.00 0.00 0.00 0.00 0.00 0.00 0.00 0.00 0.00 0.00 0.00 0.00 0.00 0.00 0.00 0.00 0.00 0.00 0.00 0.00 0.00 0.00 0.00 0.00 0.00 0.00 0.00 0.00 0.00 0.00 0.00 0.00 0.00 0.00 0.00 0.00 0.00 0.01 0.01
0.06 0.03 0.04 0.03 0.02 0.02 0.03 0.02 0.04 0.03 0.03 0.03 0.02 0.01 0.00 0.01 0.01 0.01 0.00 0.01 0.10 0.16 0.09 0.14 0.06 0.07 0.04 0.02 0.04 0.06 0.08 0.09 0.07 0.00 0.00 0.00 0.00 0.00 0.00 0.00 0.00 0.00 0.00 0.00 0.00 0.00 0.00 0.00 0.00 0.00 0.00 0.00 0.00 0.00 0.00 0.00 0.00 0.00 0.00 0.00 0.00 0.00 0.00 0.00 0.00 0.00 0.00 0.00 0.00 0.00 0.00 0.00 0.00 0.00 0.00 0.00 0.00 0.00 0.00 0.00 0.00 0.00 0.00 0.00 0.00 0.00 0.00 0.01
0.06 0.02 0.03 0.03 0.03 0.03 0.02 0.02 0.03 0.04 0.04 0.04 0.02 0.01 0.01 0.01 0.01 0.01 0.01 0.01 0.06 0.11 0.14 0.09 0.17 0.15 0.06 0.01 0.05 0.02 0.05 0.09 0.03 0.00 0.00 0.00 0.00 0.00 0.00 0.00 0.00 0.00 0.00 0.00 0.00 0.00 0.00 0.00 0.00 0.00 0.00 0.00 0.00 0.00 0.00 0.00 0.00 0.00 0.00 0.00 0.00 0.00 0.00 0.00 0.00 0.00 0.00 0.00 0.00 0.00 0.00 0.00 0.00 0.00 0.00 0.00 0.00 0.00 0.00 0.00 0.00 0.00 0.00 0.00 0.00 0.00 0.00 0.00
0.03 0.03 0.03 0.02 0.02 0.02 0.02 0.03 0.03 0.04 0.05 0.04 0.02 0.01 0.01 0.02 0.01 0.01 0.01 0.01 0.05 0.04 0.09 0.19 0.09 0.04 0.04 0.03 0.01 0.01 0.02 0.02 0.00 0.01 0.01 0.00 0.00 0.00 0.00 0.00 0.00 0.00 0.00 0.00 0.00 0.00 0.00 0.00 0.00 0.00 0.00 0.00 0.00 0.00 0.00 0.00 0.00 0.00 0.00 0.00 0.00 0.00 0.00 0.00 0.00 0.00 0.00 0.00 0.00 0.00 0.00 0.00 0.00 0.00 0.00 0.00 0.00 0.00 0.00 0.00 0.00 0.00 0.00 0.00 0.00 0.00 0.00 0.00
0.04 0.03 0.04 0.02 0.02 0.02 0.02 0.03 0.05 0.04 0.03 0.04 0.02 0.02 0.02 0.02 0.01 0.01 0.02 0.01 0.06 0.04 0.22 0.33 0.14 0.04 0.04 0.05 0.01 0.01 0.00 0.00 0.00 0.01 0.00 0.00 0.00 0.00 0.00 0.00 0.00 0.00 0.00 0.00 0.00 0.00 0.00 0.00 0.00 0.00 0.00 0.00 0.00 0.00 0.00 0.00 0.00 0.00 0.00 0.00 0.00 0.00 0.00 0.00 0.00 0.00 0.00 0.00 0.00 0.00 0.00 0.00 0.00 0.00 0.00 0.00 0.00 0.00 0.00 0.00 0.00 0.00 0.00 0.00 0.00 0.00 0.00 0.00
0.03 0.03 0.03 0.03 0.02 0.03 0.03 0.04 0.04 0.04 0.03 0.04 0.04 0.02 0.02 0.01 0.01 0.01 0.01 0.01 0.15 0.04 0.42 0.40 0.11 0.08 0.03 0.04 0.00 0.00 0.00 0.00 0.00 0.00 0.00 0.00 0.00 0.00 0.00 0.00 0.00 0.00 0.00 0.00 0.00 0.00 0.00 0.00 0.00 0.00 0.00 0.00 0.00 0.00 0.00 0.00 0.00 0.00 0.00 0.00 0.00 0.00 0.00 0.00 0.00 0.00 0.00 0.00 0.00 0.00 0.00 0.00 0.00 0.00 0.00 0.00 0.00 0.00 0.00 0.00 0.00 0.00 0.00 0.00 0.00 0.00 0.00 0.00
0.02 0.01 0.03 0.04 0.03 0.04 0.03 0.03 0.04 0.05 0.04 0.04 0.03 0.02 0.03 0.01 0.01 0.02 0.01 0.02 0.33 0.28 0.06 0.08 0.29 0.06 0.02 0.01 0.00 0.00 0.00 0.00 0.00 0.00 0.00 0.00 0.00 0.00 0.00 0.00 0.00 0.00 0.00 0.00 0.00 0.00 0.00 0.00 0.00 0.00 0.00 0.00 0.00 0.00 0.00 0.00 0.00 0.00 0.00 0.00 0.00 0.00 0.00 0.00 0.00 0.00 0.00 0.00 0.00 0.00 0.00 0.00 0.00 0.00 0.00 0.00 0.00 0.00 0.00 0.00 0.00 0.00 0.00 0.00 0.00 0.00 0.00 0.00
0.02 0.02 0.02 0.03 0.03 0.03 0.03 0.03 0.04 0.05 0.03 0.04 0.02 0.02 0.02 0.02 0.01 0.02 0.01 0.01 0.15 0.14 0.14 0.02 0.08 0.01 0.06 0.01 0.00 0.00 0.00 0.00 0.00 0.00 0.00 0.00 0.00 0.00 0.00 0.00 0.00 0.00 0.00 0.00 0.00 0.00 0.00 0.00 0.00 0.00 0.00 0.00 0.00 0.00 0.00 0.00 0.00 0.00 0.00 0.00 0.00 0.00 0.00 0.00 0.00 0.00 0.00 0.00 0.00 0.00 0.00 0.00 0.00 0.00 0.00 0.00 0.00 0.00 0.00 0.00 0.00 0.00 0.00 0.00 0.00 0.00 0.00 0.00
0.02 0.02 0.03 0.03 0.03 0.03 0.04 0.04 0.03 0.05 0.04 0.04 0.03 0.02 0.02 0.02 0.02 0.01 0.01 0.01 0.22 0.11 0.10 0.09 0.02 0.18 0.06 0.00 0.00 0.00 0.00 0.00 0.00 0.00 0.00 0.00 0.00 0.00 0.00 0.00 0.00 0.00 0.00 0.00 0.00 0.00 0.00 0.00 0.00 0.00 0.00 0.00 0.00 0.00 0.00 0.00 0.00 0.00 0.00 0.00 0.00 0.00 0.00 0.00 0.00 0.00 0.00 0.00 0.00 0.00 0.00 0.00 0.00 0.00 0.00 0.00 0.00 0.00 0.00 0.00 0.00 0.00 0.00 0.00 0.00 0.00 0.00 0.00
0.02 0.04 0.04 0.03 0.03 0.03 0.03 0.04 0.04 0.05 0.04 0.03 0.03 0.02 0.02 0.02 0.02 0.01 0.00 0.09 0.02 0.02 0.17 0.09 0.01 0.04 0.00 0.00 0.00 0.00 0.00 0.00 0.00 0.00 0.00 0.00 0.00 0.00 0.00 0.00 0.00 0.00 0.00 0.00 0.00 0.00 0.00 0.00 0.00 0.00 0.00 0.00 0.00 0.00 0.00 0.00 0.00 0.00 0.00 0.00 0.00 0.00 0.00 0.00 0.00 0.00 0.00 0.00 0.00 0.00 0.00 0.00 0.00 0.00 0.00 0.00 0.00 0.00 0.00 0.00 0.00 0.00 0.00 0.00 0.00 0.00 0.00 0.00
0.03 0.04 0.04 0.04 0.03 0.03 0.04 0.04 0.05 0.05 0.06 0.03 0.03 0.03 0.02 0.02 0.01 0.01 0.01 0.02 0.03 0.00 0.07 0.02 0.10 0.03 0.00 0.00 0.00 0.00 0.00 0.00 0.00 0.00 0.00 0.00 0.00 0.00 0.00 0.00 0.00 0.00 0.00 0.00 0.00 0.00 0.00 0.00 0.00 0.00 0.00 0.00 0.00 0.00 0.00 0.00 0.00 0.00 0.00 0.00 0.00 0.00 0.00 0.00 0.00 0.00 0.00 0.00 0.00 0.00 0.00 0.00 0.00 0.00 0.00 0.00 0.00 0.00 0.00 0.00 0.00 0.00 0.00 0.00 0.00 0.00 0.00 0.00
0.05 0.03 0.03 0.03 0.02 0.02 0.03 0.04 0.04 0.05 0.06 0.04 0.04 0.04 0.03 0.02 0.01 0.01 0.08 0.00 0.01 0.01 0.04 0.02 0.04 0.01 0.00 0.00 0.00 0.00 0.00 0.00 0.00 0.00 0.00 0.00 0.00 0.00 0.00 0.00 0.00 0.00 0.00 0.00 0.00 0.00 0.00 0.00 0.00 0.00 0.00 0.00 0.00 0.00 0.00 0.00 0.00 0.00 0.00 0.00 0.00 0.00 0.00 0.00 0.00 0.00 0.00 0.00 0.00 0.00 0.00 0.00 0.00 0.00 0.00 0.00 0.00 0.00 0.00 0.00 0.00 0.00 0.00 0.00 0.00 0.00 0.00 0.00
0.04 0.04 0.04 0.03 0.03 0.03 0.02 0.02 0.03 0.05 0.08 0.05 0.03 0.02 0.01 0.00 0.00 0.00 0.01 0.00 0.04 0.02 0.02 0.02 0.00 0.00 0.00 0.00 0.00 0.00 0.00 0.00 0.00 0.00 0.00 0.00 0.00 0.00 0.00 0.00 0.00 0.00 0.00 0.00 0.00 0.00 0.00 0.00 0.00 0.00 0.00 0.00 0.00 0.00 0.00 0.00 0.00 0.00 0.00 0.00 0.00 0.00 0.00 0.00 0.00 0.00 0.00 0.00 0.00 0.00 0.00 0.00 0.00 0.00 0.00 0.00 0.00 0.00 0.00 0.00 0.00 0.00 0.00 0.00 0.00 0.00 0.00 0.00
0.04 0.05 0.05 0.04 0.04 0.02 0.02 0.02 0.02 0.04 0.05 0.02 0.03 0.01 0.00 0.00 0.01 0.01 0.03 0.02 0.17 0.05 0.00 0.00 0.00 0.00 0.00 0.00 0.00 0.00 0.00 0.00 0.00 0.00 0.00 0.00 0.00 0.00 0.00 0.00 0.00 0.00 0.00 0.00 0.00 0.00 0.00 0.00 0.00 0.00 0.00 0.00 0.00 0.00 0.00 0.00 0.00 0.00 0.00 0.00 0.00 0.00 0.00 0.00 0.00 0.00 0.00 0.00 0.00 0.00 0.00 0.00 0.00 0.00 0.00 0.00 0.00 0.00 0.00 0.00 0.00 0.00 0.00 0.00 0.00 0.00 0.00 0.00
0.04 0.03 0.04 0.05 0.03 0.03 0.02 0.02 0.02 0.03 0.02 0.02 0.03 0.01 0.05 0.01 0.03 0.02 0.06 0.06 0.00 0.02 0.01 0.00 0.00 0.00 0.00 0.00 0.00 0.00 0.00 0.00 0.00 0.00 0.00 0.00 0.00 0.00 0.00 0.00 0.00 0.00 0.00 0.00 0.00 0.00 0.00 0.00 0.00 0.00 0.00 0.00 0.00 0.00 0.00 0.00 0.00 0.00 0.00 0.00 0.00 0.00 0.00 0.00 0.00 0.00 0.00 0.00 0.00 0.00 0.00 0.00 0.00 0.00 0.00 0.00 0.00 0.00 0.00 0.00 0.00 0.00 0.00 0.00 0.00 0.00 0.00 0.00
0.04 0.04 0.04 0.03 0.03 0.03 0.02 0.02 0.02 0.03 0.02 0.05 0.01 0.00 0.00 0.02 0.02 0.05 0.00 0.00 0.00 0.00 0.00 0.00 0.00 0.00 0.00 0.00 0.00 0.00 0.00 0.00 0.00 0.00 0.00 0.00 0.00 0.00 0.00 0.00 0.00 0.00 0.00 0.00 0.00 0.00 0.00 0.00 0.00 0.00 0.00 0.00 0.00 0.00 0.00 0.00 0.00 0.00 0.00 0.00 0.00 0.00 0.00 0.00 0.00 0.00 0.00 0.00 0.00 0.00 0.00 0.00 0.00 0.00 0.00 0.00 0.00 0.00 0.00 0.00 0.00 0.00 0.00 0.00 0.00 0.00 0.00 0.00
0.04 0.04 0.03 0.03 0.02 0.03 0.03 0.02 0.02 0.02 0.04 0.04 0.06 0.09 0.06 0.00 0.00 0.00 0.00 0.00 0.00 0.00 0.00 0.00 0.00 0.00 0.00 0.00 0.00 0.00 0.00 0.00 0.00 0.00 0.00 0.00 0.00 0.00 0.00 0.00 0.00 0.00 0.00 0.00 0.00 0.00 0.00 0.00 0.00 0.00 0.00 0.00 0.00 0.00 0.00 0.00 0.00 0.00 0.00 0.00 0.00 0.00 0.00 0.00 0.00 0.00 0.00 0.00 0.00 0.00 0.00 0.00 0.00 0.00 0.00 0.00 0.00 0.00 0.00 0.00 0.00 0.00 0.00 0.00 0.00 0.00 0.00 0.00
0.09 0.05 0.03 0.03 0.03 0.03 0.03 0.03 0.02 0.02 0.03 0.04 0.02 0.00 0.00 0.00 0.00 0.00 0.00 0.00 0.00 0.00 0.00 0.00 0.00 0.00 0.00 0.00 0.00 0.00 0.00 0.00 0.00 0.00 0.00 0.00 0.00 0.00 0.00 0.00 0.00 0.00 0.00 0.00 0.00 0.00 0.00 0.00 0.00 0.00 0.00 0.00 0.00 0.00 0.00 0.00 0.00 0.00 0.00 0.00 0.00 0.00 0.00 0.00 0.00 0.00 0.00 0.00 0.00 0.00 0.00 0.00 0.00 0.00 0.00 0.00 0.00 0.00 0.00 0.00 0.00 0.00 0.00 0.00 0.00 0.00 0.00 0.00
0.09 0.12 0.06 0.05 0.03 0.03 0.04 0.03 0.04 0.04 0.06 0.04 0.04 0.00 0.00 0.00 0.00 0.00 0.00 0.00 0.00 0.00 0.00 0.00 0.00 0.00 0.00 0.00 0.00 0.00 0.00 0.00 0.00 0.00 0.00 0.00 0.00 0.00 0.00 0.00 0.00 0.00 0.00 0.00 0.00 0.00 0.00 0.00 0.00 0.00 0.00 0.00 0.00 0.00 0.00 0.00 0.00 0.00 0.00 0.00 0.00 0.00 0.00 0.00 0.00 0.00 0.00 0.00 0.00 0.00 0.00 0.00 0.00 0.00 0.00 0.00 0.00 0.00 0.00 0.00 0.00 0.00 0.00 0.00 0.00 0.00 0.00 0.00
0.15 0.11 0.14 0.08 0.05 0.04 0.03 0.03 0.04 0.07 0.11 0.12 0.03 0.00 0.00 0.00 0.00 0.00 0.00 0.00 0.00 0.00 0.00 0.00 0.00 0.00 0.00 0.00 0.00 0.00 0.00 0.00 0.00 0.00 0.00 0.00 0.00 0.00 0.00 0.00 0.00 0.00 0.00 0.00 0.00 0.00 0.00 0.00 0.00 0.00 0.00 0.00 0.00 0.00 0.00 0.00 0.00 0.00 0.00 0.00 0.00 0.00 0.00 0.00 0.00 0.00 0.00 0.00 0.00 0.00 0.00 0.00 0.00 0.00 0.00 0.00 0.00 0.00 0.00 0.00 0.00 0.00 0.00 0.00 0.00 0.00 0.00 0.00
0.13 0.15 0.12 0.14 0.09 0.07 0.03 0.05 0.09 0.25 0.11 0.03 0.01 0.00 0.00 0.00 0.00 0.00 0.00 0.00 0.00 0.00 0.00 0.00 0.00 0.00 0.00 0.00 0.00 0.00 0.00 0.00 0.00 0.00 0.00 0.00 0.00 0.00 0.00 0.00 0.00 0.00 0.00 0.00 0.00 0.00 0.00 0.00 0.00 0.00 0.00 0.00 0.00 0.00 0.00 0.00 0.00 0.00 0.00 0.00 0.00 0.00 0.00 0.00 0.00 0.00 0.00 0.00 0.00 0.00 0.00 0.00 0.00 0.00 0.00 0.00 0.00 0.00 0.00 0.00 0.00 0.00 0.00 0.00 0.00 0.00 0.00 0.00
0.38 0.16 0.18 0.15 0.19 0.10 0.06 0.14 0.33 0.12 0.01 0.04 0.01 0.00 0.00 0.00 0.00 0.00 0.00 0.00 0.00 0.00 0.00 0.00 0.00 0.00 0.00 0.00 0.00 0.00 0.00 0.00 0.00 0.00 0.00 0.00 0.00 0.00 0.00 0.00 0.00 0.00 0.00 0.00 0.00 0.00 0.00 0.00 0.00 0.00 0.00 0.00 0.00 0.00 0.00 0.00 0.00 0.00 0.00 0.00 0.00 0.00 0.00 0.00 0.00 0.00 0.00 0.00 0.00 0.00 0.00 0.00 0.00 0.00 0.00 0.00 0.00 0.00 0.00 0.00 0.00 0.00 0.00 0.00 0.00 0.00 0.00 0.00
0.89 0.79 0.30 0.25 0.25 0.19 0.28 0.40 0.08 0.03 0.06 0.02 0.00 0.00 0.00 0.00 0.00 0.00 0.00 0.00 0.00 0.00 0.00 0.00 0.00 0.00 0.00 0.00 0.00 0.00 0.00 0.00 0.00 0.00 0.00 0.00 0.00 0.00 0.00 0.00 0.00 0.00 0.00 0.00 0.00 0.00 0.00 0.00 0.00 0.00 0.00 0.00 0.00 0.00 0.00 0.00 0.00 0.00 0.00 0.00 0.00 0.00 0.00 0.00 0.00 0.00 0.00 0.00 0.00 0.00 0.00 0.00 0.00 0.00 0.00 0.00 0.00 0.00 0.00 0.00 0.00 0.00 0.00 0.00 0.00 0.00 0.00 0.00
1.38 1.11 0.88 0.85 0.46 0.36 0.76 0.12 0.00 0.02 0.07 0.00 0.00 0.00 0.00 0.00 0.00 0.00 0.00 0.00 0.01 0.00 0.00 0.00 0.00 0.00 0.00 0.00 0.00 0.00 0.00 0.00 0.00 0.00 0.00 0.00 0.00 0.00 0.00 0.00 0.00 0.00 0.00 0.00 0.00 0.00 0.00 0.00 0.00 0.00 0.00 0.00 0.00 0.00 0.00 0.00 0.00 0.00 0.00 0.00 0.00 0.00 0.00 0.00 0.00 0.00 0.00 0.00 0.00 0.00 0.00 0.00 0.00 0.00 0.00 0.00 0.00 0.00 0.00 0.00 0.00 0.00 0.00 0.00 0.00 0.00 0.00 0.00
1.85 1.61 1.14 1.01 0.76 0.38 0.17 0.05 0.04 0.05 0.00 0.00 0.00 0.00 0.00 0.00 0.00 0.00 0.00 0.03 0.02 0.00 0.00 0.00 0.00 0.00 0.00 0.00 0.00 0.00 0.00 0.00 0.00 0.00 0.00 0.00 0.00 0.00 0.00 0.00 0.00 0.00 0.00 0.00 0.00 0.00 0.00 0.00 0.00 0.00 0.00 0.00 0.00 0.00 0.00 0.00 0.00 0.00 0.00 0.00 0.00 0.00 0.00 0.00 0.00 0.00 0.00 0.00 0.00 0.00 0.00 0.00 0.00 0.00 0.00 0.00 0.00 0.00 0.00 0.00 0.00 0.00 0.00 0.00 0.00 0.00 0.00 0.00
1.26 1.43 1.68 1.55 0.92 0.74 0.34 0.16 0.04 0.02 0.00 0.00 0.00 0.00 0.00 0.00 0.00 0.00 0.05 0.06 0.01 0.00 0.00 0.00 0.00 0.00 0.00 0.00 0.00 0.00 0.00 0.00 0.00 0.00 0.00 0.00 0.00 0.00 0.00 0.00 0.00 0.00 0.00 0.00 0.00 0.00 0.00 0.00 0.00 0.00 0.00 0.00 0.00 0.00 0.00 0.00 0.00 0.00 0.00 0.00 0.00 0.00 0.00 0.00 0.00 0.00 0.00 0.00 0.00 0.00 0.00 0.00 0.00 0.00 0.00 0.00 0.00 0.00 0.00 0.00 0.00 0.00 0.00 0.00 0.00 0.00 0.00 0.00
0.93 1.41 1.70 2.40 2.57 2.59 1.07 0.28 0.22 0.36 0.13 0.03 0.01 0.00 0.00 0.00 0.01 0.01 0.06 0.10 0.00 0.00 0.00 0.00 0.00 0.00 0.00 0.00 0.00 0.00 0.00 0.00 0.00 0.00 0.00 0.00 0.00 0.00 0.00 0.00 0.00 0.00 0.00 0.00 0.00 0.00 0.00 0.00 0.00 0.00 0.00 0.00 0.00 0.00 0.00 0.00 0.00 0.00 0.00 0.00 0.00 0.00 0.00 0.00 0.00 0.00 0.00 0.00 0.00 0.00 0.00 0.00 0.00 0.00 0.00 0.00 0.00 0.00 0.00 0.00 0.00 0.00 0.00 0.00 0.00 0.00 0.00 0.00
1.70 1.22 1.39 2.62 3.14 1.90 1.32 0.83 1.00 0.70 0.40 0.39 0.10 0.00 0.01 0.15 0.15 0.07 0.10 0.08 0.00 0.00 0.00 0.00 0.00 0.00 0.00 0.00 0.00 0.00 0.00 0.00 0.00 0.00 0.00 0.00 0.00 0.00 0.00 0.00 0.00 0.00 0.00 0.00 0.00 0.00 0.00 0.00 0.00 0.00 0.00 0.00 0.00 0.00 0.00 0.00 0.00 0.00 0.00 0.00 0.00 0.00 0.00 0.00 0.00 0.00 0.00 0.00 0.00 0.00 0.00 0.00 0.00 0.00 0.00 0.00 0.00 0.00 0.00 0.00 0.00 0.00 0.00 0.00 0.00 0.00 0.00 0.00
1.44 1.74 2.36 2.31 1.42 1.39 1.21 0.99 1.94 2.02 1.30 0.95 0.64 0.75 0.41 0.73 0.31 0.21 0.22 0.01 0.01 0.00 0.00 0.00 0.00 0.00 0.00 0.00 0.00 0.00 0.00 0.00 0.00 0.00 0.00 0.00 0.00 0.00 0.00 0.00 0.00 0.00 0.00 0.00 0.00 0.00 0.00 0.00 0.00 0.00 0.00 0.00 0.00 0.00 0.00 0.00 0.00 0.00 0.00 0.00 0.00 0.00 0.00 0.00 0.00 0.00 0.00 0.00 0.00 0.00 0.00 0.00 0.00 0.00 0.00 0.00 0.00 0.00 0.00 0.00 0.00 0.00 0.00 0.00 0.00 0.00 0.00 0.00
1.52 1.82 1.87 2.19 1.76 1.42 0.84 0.86 2.10 1.60 1.70 2.33 1.59 2.24 1.22 0.91 1.38 0.62 0.12 0.01 0.03 0.00 0.00 0.00 0.00 0.00 0.00 0.00 0.00 0.00 0.00 0.00 0.00 0.00 0.00 0.00 0.00 0.00 0.00 0.00 0.00 0.00 0.00 0.00 0.00 0.00 0.00 0.00 0.00 0.00 0.00 0.00 0.00 0.00 0.00 0.00 0.00 0.00 0.00 0.00 0.00 0.00 0.00 0.00 0.00 0.00 0.00 0.00 0.00 0.00 0.00 0.00 0.00 0.00 0.00 0.00 0.00 0.00 0.00 0.00 0.00 0.00 0.00 0.00 0.00 0.00 0.00 0.00
1.82 2.37 3.55 2.69 2.39 1.42 1.67 1.38 2.47 2.15 2.64 2.67 2.39 2.27 2.21 2.27 2.02 0.70 0.20 0.04 0.01 0.00 0.00 0.00 0.00 0.00 0.00 0.00 0.00 0.00 0.00 0.00 0.00 0.00 0.00 0.00 0.00 0.00 0.00 0.00 0.00 0.00 0.00 0.00 0.00 0.00 0.00 0.00 0.00 0.00 0.00 0.00 0.00 0.00 0.00 0.00 0.00 0.00 0.00 0.00 0.00 0.00 0.00 0.00 0.00 0.01 0.01 0.00 0.00 0.00 0.00 0.00 0.00 0.00 0.00 0.00 0.00 0.00 0.00 0.00 0.00 0.00 0.00 0.00 0.00 0.00 0.00 0.00
2.28 3.09 2.50 2.57 2.82 2.40 1.85 1.53 1.89 2.93 3.70 3.53 4.10 3.96 3.95 3.51 1.94 0.94 0.36 0.11 0.01 0.00 0.00 0.00 0.00 0.00 0.00 0.00 0.00 0.00 0.00 0.03 0.00 0.00 0.00 0.00 0.00 0.00 0.00 0.00 0.00 0.00 0.00 0.00 0.00 0.00 0.00 0.00 0.00 0.00 0.00 0.00 0.00 0.00 0.00 0.00 0.00 0.00 0.00 0.00 0.00 0.00 0.00 0.03 0.00 0.00 0.01 0.01 0.00 0.00 0.00 0.00 0.00 0.00 0.00 0.00 0.00 0.00 0.00 0.00 0.00 0.00 0.00 0.00 0.00 0.00 0.00 0.00
3.06 4.57 3.08 4.19 2.91 2.56 1.89 2.13 2.77 3.49 4.98 4.95 5.10 5.79 4.50 2.63 1.62 0.95 0.43 0.23 0.03 0.00 0.00 0.00 0.00 0.00 0.00 0.00 0.00 0.00 0.00 0.00 0.00 0.00 0.00 0.00 0.00 0.00 0.00 0.00 0.00 0.00 0.04 0.01 0.00 0.02 0.00 0.01 0.01 0.00 0.00 0.00 0.00 0.00 0.00 0.00 0.00 0.00 0.00 0.00 0.00 0.00 0.00 0.00 0.00 0.00 0.00 0.00 0.01 0.00 0.00 0.00 0.00 0.00 0.00 0.00 0.00 0.00 0.00 0.00 0.00 0.00 0.00 0.00 0.00 0.00 0.00 0.00
5.22 3.71 6.34 3.35 1.93 1.73 2.06 2.40 4.12 5.03 5.69 5.10 4.83 5.53 4.39 2.36 1.39 0.88 0.46 0.19 0.19 0.21 0.04 0.02 0.03 0.01 0.01 0.00 0.00 0.00 0.00 0.00 0.00 0.00 0.00 0.00 0.00 0.00 0.00 0.00 0.00 0.00 0.00 0.04 0.01 0.02 0.02 0.01 0.01 0.00 0.00 0.00 0.00 0.00 0.00 0.00 0.00 0.00 0.00 0.00 0.00 0.00 0.00 0.00 0.00 0.00 0.00 0.01 0.02 0.00 0.00 0.00 0.00 0.00 0.00 0.00 0.00 0.00 0.00 0.00 0.00 0.00 0.00 0.00 0.00 0.00 0.00 0.00
3.96 3.94 3.08 2.13 2.08 2.15 2.23 3.67 4.59 7.24 6.34 7.17 5.73 3.55 2.31 1.27 1.12 0.61 0.31 0.35 0.47 0.28 0.05 0.13 0.19 0.11 0.06 0.05 0.03 0.01 0.00 0.00 0.02 0.01 0.02 0.01 0.01 0.00 0.00 0.00 0.00 0.00 0.00 0.00 0.02 0.00 0.00 0.07 0.01 0.01 0.00 0.00 0.00 0.00 0.00 0.00 0.00 0.00 0.01 0.00 0.00 0.00 0.00 0.00 0.00 0.01 0.02 0.02 0.01 0.00 0.00 0.00 0.00 0.00 0.00 0.00 0.00 0.00 0.00 0.00 0.00 0.00 0.00 0.00 0.00 0.00 0.00 0.00
2.70 3.22 5.04 2.40 1.53 1.88 2.35 3.39 5.21 7.10 8.96 8.15 5.18 3.39 1.88 0.96 0.56 0.20 0.14 0.13 0.21 0.77 0.31 0.09 0.09 0.17 0.10 0.09 0.08 0.05 0.02 0.02 0.04 0.02 0.02 0.06 0.02 0.00 0.00 0.00 0.00 0.00 0.00 0.01 0.02 0.00 0.13 0.10 0.02 0.02 0.01 0.00 0.00 0.00 0.00 0.00 0.00 0.00 0.00 0.03 0.05 0.00 0.00 0.01 0.05 0.05 0.17 0.11 0.12 0.11 0.03 0.03 0.00 0.00 0.00 0.00 0.00 0.00 0.00 0.00 0.00 0.00 0.00 0.00 0.00 0.00 0.00 0.00
4.30 5.14 2.97 2.14 1.64 1.49 2.57 4.67 10.23 9.81 8.01 7.00 5.32 3.15 2.02 0.80 0.40 0.17 0.06 0.05 0.15 0.20 0.31 0.32 0.22 0.14 0.14 0.11 0.07 0.06 0.07 0.03 0.02 0.07 0.03 0.11 0.03 0.01 0.00 0.00 0.00 0.00 0.00 0.01 0.07 0.04 0.02 0.07 0.09 0.09 0.03 0.00 0.00 0.00 0.00 0.00 0.00 0.00 0.01 0.01 0.00 0.00 0.01 0.02 0.11 0.04 0.02 0.14 0.06 0.08 0.09 0.04 0.01 0.00 0.00 0.00 0.00 0.00 0.00 0.00 0.00 0.00 0.00 0.00 0.00 0.00 0.00 0.00
3.33 3.35 2.59 1.91 1.36 1.73 3.82 8.89 10.14 8.83 7.08 5.50 3.95 2.73 1.53 0.70 0.39 0.15 0.05 0.05 0.30 0.18 0.28 0.39 0.37 0.54 0.40 0.23 0.22 0.12 0.28 0.12 0.10 0.11 0.11 0.10 0.04 0.03 0.01 0.00 0.00 0.02 0.00 0.11 0.09 0.05 0.11 0.07 0.05 0.03 0.02 0.01 0.00 0.00 0.01 0.00 0.00 0.01 0.03 0.00 0.00 0.01 0.15 0.05 0.02 0.00 0.03 0.05 0.05 0.14 0.12 0.11 0.02 0.00 0.00 0.00 0.00 0.00 0.00 0.00 0.00 0.00 0.00 0.00 0.00 0.00 0.00 0.14
4.10 5.16 2.79 1.84 1.81 2.05 4.12 9.19 7.52 5.23 5.45 4.46 3.53 2.39 1.38 0.69 0.37 0.17 0.07 0.05 0.11 0.16 0.14 0.12 0.20 0.27 0.31 0.30 0.28 0.16 0.56 0.26 0.22 0.20 0.14 0.10 0.08 0.03 0.02 0.01 0.01 0.01 0.02 0.02 0.02 0.28 0.10 0.21 0.16 0.11 0.08 0.04 0.02 0.00 0.00 0.00 0.00 0.00 0.01 0.00 0.06 0.12 0.04 0.13 0.16 0.04 0.01 0.08 0.13 0.34 0.36 0.12 0.05 0.05 0.01 0.00 0.00 0.00 0.00 0.00 0.00 0.00 0.00 0.00 0.00 0.00 0.03 0.06
4.75 3.26 3.65 2.59 2.62 2.51 4.30 5.04 4.91 5.29 5.02 4.04 2.73 1.51 1.04 0.71 0.40 0.23 0.28 0.45 0.41 0.29 0.22 0.21 0.14 0.17 0.16 0.16 0.17 0.18 0.26 0.55 0.28 0.19 0.14 0.09 0.05 0.07 0.06 0.03 0.01 0.05 0.20 0.03 0.04 0.30 0.06 1.27 0.20 0.16 0.12 0.08 0.05 0.03 0.01 0.00 0.00 0.01 0.03 0.01 0.05 0.05 0.02 0.06 0.18 0.27 0.19 0.08 0.24 0.23 0.47 0.24 0.18 0.06 0.01 0.00 0.00 0.00 0.00 0.00 0.00 0.00 0.00 0.00 0.00 0.00 0.00 0.00
3.48 3.09 3.61 3.64 3.45 4.77 3.29 4.56 4.88 4.60 4.04 3.33 2.03 1.49 1.01 0.75 0.45 0.34 0.23 0.17 0.19 0.28 0.23 0.27 0.26 0.08 0.09 0.09 0.17 0.24 0.27 0.78 0.44 0.24 0.19 0.13 0.08 0.07 0.03 0.02 0.03 0.48 0.06 0.37 0.24 1.46 1.01 0.27 0.34 0.33 0.41 0.21 0.12 0.07 0.04 0.01 0.00 0.02 0.01 0.01 0.02 0.01 0.06 0.06 0.48 0.82 0.55 0.15 0.11 0.41 0.27 0.19 0.13 0.13 0.23 0.09 0.04 0.11 0.01 0.01 0.01 0.00 0.00 0.00 0.00 0.00 0.00 0.00
3.15 3.37 3.13 4.81 4.79 6.17 5.28 2.80 3.13 3.36 3.05 2.28 1.90 1.69 1.14 0.96 0.53 0.30 0.24 0.25 0.19 0.37 0.31 0.39 0.23 0.20 0.24 0.15 0.18 0.16 0.62 0.34 0.47 0.30 0.17 0.15 0.13 0.14 0.08 0.07 0.34 0.13 0.40 0.35 0.13 0.34 0.38 0.24 0.41 0.67 0.77 0.64 0.43 0.24 0.16 0.06 0.03 0.03 0.03 0.01 0.00 0.00 0.01 0.08 0.35 0.30 0.33 0.28 0.20 0.21 0.14 0.07 0.03 0.04 0.00 0.01 0.07 0.01 0.04 0.06 0.20 0.04 0.14 0.01 0.01 0.01 0.00 0.00
3.60 3.55 3.80 3.90 7.56 6.47 4.09 2.86 2.52 2.09 1.93 1.76 1.92 1.41 1.10 0.93 0.62 0.35 0.23 0.25 0.15 0.41 0.35 0.67 0.85 0.60 0.55 0.62 0.59 0.40 0.28 0.73 0.46 0.40 0.30 0.22 0.14 0.13 0.22 0.12 0.13 0.21 0.16 0.17 1.75 0.38 0.38 0.43 0.39 0.52 0.62 0.51 0.34 0.18 0.09 0.03 0.09 0.09 0.06 0.15 0.05 0.14 0.13 0.17 0.32 0.32 0.29 0.16 0.25 0.28 0.21 0.15 0.17 0.08 0.06 0.19 0.28 0.11 0.22 0.23 0.11 0.15 0.10 0.05 0.03 0.03 0.02 0.00
3.36 3.10 3.34 3.71 4.29 5.57 4.07 2.50 2.41 2.18 1.84 1.39 1.52 1.41 1.03 0.76 0.61 0.56 0.27 0.85 0.30 0.23 0.37 0.46 0.46 0.54 0.52 0.50 0.56 0.64 0.45 0.35 0.34 0.42 0.25 0.09 0.06 0.04 0.03 0.02 0.01 0.01 0.03 0.26 0.13 0.49 0.88 0.56 0.44 0.36 0.31 0.26 0.28 0.13 0.08 0.06 0.08 0.08 0.07 0.03 0.03 0.08 0.05 0.26 0.35 0.06 0.19 0.23 0.19 0.11 0.04 0.22 0.12 0.12 0.19 0.08 0.19 0.13 0.10 0.02 0.00 0.00 0.00 0.00 0.00 0.00 0.00 0.00
3.03 2.85 2.61 2.85 2.96 3.54 3.82 3.22 2.15 2.23 2.18 1.69 1.49 1.25 0.73 0.62 0.63 0.72 0.81 0.40 0.33 0.36 0.76 0.80 0.55 0.42 0.33 0.28 0.41 0.44 0.38 0.33 0.36 0.30 0.20 0.17 0.10 0.12 0.04 0.03 0.04 0.03 0.18 0.54 0.22 0.51 0.80 0.57 0.45 0.28 0.26 0.23 0.14 0.09 0.07 0.07 0.10 0.10 0.10 0.10 0.07 0.01 0.02 0.08 0.05 0.01 0.11 0.43 0.19 0.09 0.07 0.13 0.13 0.17 0.23 0.13 0.03 0.02 0.04 0.02 0.01 0.01 0.00 0.00 0.00 0.00 0.00 0.00
2.20 2.38 1.92 2.67 1.89 2.08 3.01 2.82 1.70 1.52 1.92 1.91 1.98 1.47 1.10 0.74 0.56 0.48 0.51 0.62 0.50 0.82 0.41 0.73 0.69 0.44 0.37 0.37 0.49 0.48 0.53 0.80 0.56 0.34 0.34 0.23 0.22 0.16 0.39 0.17 0.12 0.09 0.08 0.09 0.12 0.20 0.67 0.72 0.52 0.22 0.24 0.25 0.15 0.10 0.08 0.10 0.07 0.07 0.12 0.04 0.02 0.02 0.02 0.05 0.01 0.01 0.14 0.10 0.13 0.12 0.06 0.06 0.15 0.15 0.24 0.21 0.14 0.21 0.22 0.04 0.02 0.01 0.00 0.00 0.00 0.00 0.00 0.00
1.66 1.63 1.49 1.42 1.58 2.04 1.83 1.46 1.55 1.77 2.20 1.49 2.63 2.04 1.46 1.18 0.78 0.51 0.71 0.61 0.95 0.66 0.59 0.61 0.41 0.31 0.37 0.42 0.62 0.70 0.61 0.55 0.50 0.49 0.60 0.31 0.38 0.35 0.30 0.31 0.27 0.52 0.37 0.40 0.47 0.71 0.71 0.73 0.64 0.41 0.47 0.42 0.25 0.15 0.08 0.09 0.11 0.12 0.09 0.06 0.04 0.03 0.02 0.01 0.03 0.06 0.07 0.15 0.08 0.19 0.23 0.11 0.10 0.19 0.08 0.06 0.05 0.03 0.01 0.01 0.01 0.00 0.00 0.00 0.00 0.00 0.00 0.00
1.39 1.18 1.38 1.40 1.50 1.43 1.48 1.54 1.54 1.75 2.08 2.15 2.24 1.81 1.33 1.20 0.92 0.70 0.64 0.66 0.64 0.67 0.72 0.63 0.70 0.54 0.82 0.99 0.95 0.67 0.69 0.65 0.68 0.68 0.59 0.99 0.85 0.86 0.92 0.70 0.70 0.45 0.53 0.76 0.58 0.60 1.26 0.93 0.79 0.79 0.94 0.91 0.55 0.36 0.18 0.32 0.38 0.32 0.26 0.25 0.13 0.14 0.08 0.04 0.07 0.10 0.19 0.06 0.09 0.11 0.16 0.07 0.11 0.10 0.05 0.02 0.01 0.01 0.01 0.01 0.00 0.00 0.00 0.00 0.00 0.00 0.00 0.00
1.22 0.98 0.98 1.33 1.46 1.37 1.26 1.28 1.43 1.83 2.21 2.04 1.93 1.70 1.18 1.03 0.82 0.83 1.01 1.31 0.86 0.80 0.63 0.59 0.62 0.65 0.83 1.13 1.13 0.92 0.88 1.02 0.93 1.19 1.28 1.61 0.88 0.93 0.89 0.88 0.79 0.85 1.22 1.01 1.28 1.41 0.90 1.05 1.03 0.98 1.15 1.15 0.65 0.36 0.25 0.39 0.63 0.42 0.36 0.19 0.18 0.12 0.03 0.07 0.01 0.00 0.01 0.21 0.09 0.07 0.13 0.26 0.25 0.10 0.06 0.07 0.08 0.08 0.07 0.02 0.02 0.03 0.01 0.01 0.01 0.00 0.00 0.00